{"data":{"norad_id":87517,"intl_designator":"","name":"UNKNOWN","alt_names":[],"object_type":"UNKNOWN","status":"UNKNOWN","operator":null,"country":null,"launch_date":null,"launch_site_code":null,"launch_vehicle":null,"mission":null,"orbit_class":"UNKNOWN","rcs_meters":null,"size_class":null,"mass_kg":null,"dimensions":null,"purposes":[],"wikipedia_slug":null,"has_3d_model":false,"image_url":null,"decayed_at":null,"tle_current":{"epoch":"2026-09-14T11:56:18.727872Z","epoch_age_seconds":536944,"freshness":"STALE","line1":"1 87517U          26257.49743898  .00001431  00000+0  42941-3 0  9993","line2":"2 87517  65.8226 279.8046 0660193 174.5491 337.5763 13.63075553630473","mean_motion":13.63075553,"eccentricity":0.0660193,"inclination_deg":65.8226,"raan_deg":279.8046,"arg_perigee_deg":174.5491,"mean_anomaly_deg":337.5763,"bstar":0.00042941,"rev_number":63047,"period_min":105.64344704376,"perigee_km":535.81654954952,"apogee_km":1513.255105986,"semimajor_km":7402.6728277678,"source":"CELESTRAK","updated_at":"2026-09-20T09:00:32.475452Z"}}}